EW7199 Weather Reports


Display with metric or nautical units.
time (UTC)temp
F
wind
direction
speed
MPH
gust
MPH
rain 1hr
in
rain 24hr
in
rain mn
in
humidity
%
barometer
mb
20260503021415 57 268 3.0 3.0 0.00 0.00 0.00 59 1018.3
20260503020915 56 270 2.0 3.0 0.00 0.00 0.00 59 1018.4
20260503020417 56 268 2.0 3.0 0.00 0.00 0.00 60 1018.4
20260503015418 56 258 2.0 3.0 0.00 0.00 0.00 58 1018.6
20260503014916 56 246 3.0 3.0 0.00 0.00 0.00 58 1018.6
20260503014429 56 267 2.0 6.0 0.00 0.00 0.00 57 1018.6
20260503013916 56 264 2.0 3.0 0.00 0.00 0.00 57 1018.7
20260503012916 56 267 2.0 3.0 0.00 0.00 0.00 57 1018.7
20260503011916 56 271 2.0 3.0 0.00 0.00 0.00 57 1018.8
20260503011417 56 246 1.0 3.0 0.00 0.00 0.00 57 1018.8
20260503010915 56 283 2.0 3.0 0.00 0.00 0.00 58 1018.9
20260503005915 56 256 2.0 3.0 0.00 0.00 0.00 58 1019.0
20260503005416 56 253 2.0 3.0 0.00 0.00 0.00 58 1019.0
20260503004915 56 257 2.0 3.0 0.00 0.00 0.00 58 1019.1
20260503004415 56 279 2.0 3.0 0.00 0.00 0.00 57 1019.1
20260503003418 57 260 1.0 3.0 0.00 0.00 0.00 57 1019.1
20260503001915 57 280 2.0 3.0 0.00 0.00 0.00 56 1019.1
20260503001415 57 289 1.0 3.0 0.00 0.00 0.00 57 1019.1
20260503000915 57 280 2.0 5.0 0.00 0.00 0.00 57 1019.2
20260503000415 57 245 2.0 3.0 0.00 0.00 0.00 58 1019.2
20260502235916 57 289 2.0 3.0 0.00 0.00 0.00 58 1019.3
20260502235422 57 275 2.0 6.0 0.00 0.00 0.00 60 1019.3
20260502234915 58 266 2.0 3.0 0.00 0.00 0.00 60 1019.4
20260502234417 58 266 2.0 6.0 0.00 0.00 0.00 60 1019.4
20260502233915 58 270 3.0 6.0 0.00 0.01 0.00 59 1019.5
20260502233415 58 270 3.0 7.0 0.00 0.01 0.00 58 1019.6
20260502232915 58 272 3.0 3.0 0.00 0.01 0.00 57 1019.6
20260502232418 58 276 3.0 6.0 0.00 0.01 0.00 58 1019.8
20260502231915 59 266 3.0 6.0 0.00 0.01 0.00 57 1019.8
20260502231415 59 267 3.0 5.0 0.00 0.01 0.00 59 1020.0
20260502230915 59 271 3.0 5.0 0.00 0.01 0.00 60 1020.1
20260502230415 59 257 2.0 6.0 0.00 0.01 0.00 63 1020.2
20260502225917 59 263 3.0 5.0 0.00 0.01 0.00 62 1020.3
20260502224918 59 274 3.0 3.0 0.00 0.01 0.00 59 1020.3
20260502224427 59 271 2.0 3.0 0.00 0.01 0.00 59 1020.4
20260502223915 59 266 2.0 3.0 0.00 0.01 0.00 61 1020.4
20260502223417 59 269 2.0 3.0 0.00 0.01 0.00 61 1020.5
20260502222917 59 266 2.0 3.0 0.00 0.01 0.00 62 1020.5
20260502222421 59 268 1.0 3.0 0.00 0.01 0.00 61 1020.5
20260502221916 59 250 1.0 3.0 0.00 0.01 0.00 61 1020.6
20260502221416 59 255 1.0 3.0 0.00 0.01 0.00 60 1020.6
20260502220416 59 262 2.0 3.0 0.00 0.01 0.00 56 1020.7
20260502215417 60 246 2.0 3.0 0.00 0.01 0.01 51 1020.7
20260502214916 61 285 2.0 3.0 0.00 0.01 0.01 51 1020.8
20260502214415 61 294 2.0 3.0 0.00 0.01 0.01 51 1020.8
20260502213416 60 302 2.0 3.0 0.00 0.01 0.01 51 1020.8
20260502212415 60 311 2.0 3.0 0.00 0.01 0.01 50 1020.8
20260502211917 60 315 2.0 3.0 0.00 0.01 0.01 50 1020.8
20260502211415 60 302 2.0 3.0 0.00 0.01 0.01 50 1020.8
20260502210916 60 302 2.0 3.0 0.00 0.01 0.01 50 1020.9
20260502210416 60 314 2.0 3.0 0.00 0.01 0.01 50 1021.0
20260502205915 60 308 2.0 3.0 0.00 0.01 0.01 49 1020.9
20260502204930 59 292 2.0 3.0 0.00 0.01 0.01 49 1020.9
20260502204417 59 310 3.0 3.0 0.00 0.01 0.01 49 1020.9
20260502203915 59 307 2.0 5.0 0.00 0.01 0.01 49 1021.0
20260502203424 59 303 1.0 3.0 0.00 0.01 0.01 49 1021.0
20260502202922 59 318 2.0 3.0 0.00 0.01 0.01 49 1021.0
20260502201916 59 312 2.0 3.0 0.00 0.01 0.01 48 1021.0
20260502201415 60 315 2.0 3.0 0.00 0.01 0.01 47 1021.0
20260502200914 60 302 2.0 3.0 0.00 0.01 0.01 47 1021.0
20260502200416 60 321 2.0 3.0 0.00 0.01 0.01 47 1021.0
20260502195915 60 329 2.0 3.0 0.00 0.01 0.01 46 1021.0
20260502195417 60 298 1.0 3.0 0.00 0.01 0.01 45 1021.0
20260502194916 60 285 2.0 3.0 0.00 0.01 0.01 44 1021.0
20260502194419 60 317 2.0 5.0 0.00 0.01 0.01 44 1021.0
20260502192918 60 337 2.0 3.0 0.00 0.01 0.01 43 1021.0
20260502192415 60 297 2.0 5.0 0.00 0.01 0.01 42 1020.9
20260502191915 60 305 2.0 3.0 0.00 0.01 0.01 42 1020.9
20260502191415 60 310 2.0 3.0 0.00 0.01 0.01 43 1020.9
20260502190915 60 308 2.0 3.0 0.00 0.01 0.01 42 1020.7
20260502190416 61 300 2.0 3.0 0.00 0.01 0.01 41 1020.7
20260502185921 61 312 2.0 3.0 0.00 0.01 0.01 40 1020.6
20260502185416 62 312 3.0 3.0 0.00 0.01 0.01 39 1020.6
20260502184916 62 328 2.0 3.0 0.00 0.01 0.01 39 1020.5
20260502184418 63 284 2.0 3.0 0.00 0.01 0.01 38 1020.5
20260502183916 63 270 1.0 3.0 0.00 0.01 0.01 37 1020.5
20260502183415 63 290 1.0 6.0 0.00 0.01 0.01 37 1020.5
20260502182918 63 304 1.0 6.0 0.00 0.01 0.01 37 1020.4
20260502182423 63 310 2.0 3.0 0.00 0.01 0.01 36 1020.4
20260502181415 64 299 3.0 5.0 0.00 0.01 0.01 36 1020.3
20260502180915 64 284 2.0 3.0 0.00 0.01 0.01 35 1020.3
20260502180416 64 354 1.0 3.0 0.00 0.01 0.01 35 1020.2
20260502170416 66 272 1.0 3.0 0.00 0.01 0.01 30 1019.8
20260502163915 66 278 1.0 5.0 0.00 0.01 0.01 29 1019.9
20260502163416 66 4 1.0 5.0 0.00 0.01 0.01 30 1019.9
20260502162918 66 322 2.0 3.0 0.00 0.01 0.01 28 1019.9
20260502162416 66 275 2.0 7.0 0.00 0.01 0.01 28 1019.9
20260502161415 67 307 2.0 3.0 0.00 0.01 0.01 28 1019.8
20260502160915 67 293 2.0 5.0 0.00 0.01 0.01 27 1019.8
20260502160415 67 281 1.0 3.0 0.00 0.01 0.01 28 1019.8
20260502151915 67 321 2.0 3.0 0.00 0.01 0.01 26 1020.1
20260502151414 67 320 2.0 5.0 0.00 0.01 0.01 28 1020.0
20260502150915 67 314 2.0 5.0 0.00 0.01 0.01 27 1020.1
20260502150415 67 315 2.0 3.0 0.00 0.01 0.01 27 1020.2
20260502123415 66 341 2.0 3.0 0.00 0.01 0.01 32 1020.5
20260502122919 66 0 2.0 3.0 0.00 0.01 0.01 33 1020.6
20260502122417 66 290 2.0 5.0 0.00 0.01 0.01 33 1020.5
20260502121915 66 5 2.0 8.0 0.00 0.01 0.01 35 1020.6
20260502120914 66 54 2.0 3.0 0.00 0.01 0.01 36 1020.6
20260502115917 65 297 2.0 5.0 0.00 0.01 0.01 36 1020.7
20260502114914 66 313 1.0 3.0 0.00 0.01 0.01 36 1020.8
20260502114416 65 29 3.0 5.0 0.00 0.01 0.01 36 1020.8
20260502112915 65 73 3.0 5.0 0.00 0.01 0.01 38 1020.8
20260502111414 65 35 3.0 6.0 0.00 0.01 0.01 37 1021.1
20260502110914 65 26 3.0 8.0 0.00 0.01 0.01 36 1021.1
20260502110414 65 330 2.0 8.0 0.00 0.01 0.01 35 1021.1
20260502105915 65 46 2.0 5.0 0.00 0.01 0.01 36 1021.1
20260502105416 65 26 2.0 3.0 0.00 0.01 0.01 35 1021.1
20260502104418 65 327 3.0 8.0 0.00 0.01 0.01 35 1021.1
20260502103915 65 14 2.0 3.0 0.00 0.01 0.01 33 1021.2
20260502103415 65 89 2.0 6.0 0.00 0.01 0.01 33 1021.1
20260502102915 65 25 2.0 3.0 0.00 0.01 0.01 33 1021.2
20260502102415 65 24 2.0 3.0 0.00 0.01 0.01 33 1021.2
20260502101415 65 2 2.0 6.0 0.00 0.01 0.01 34 1021.3
20260502100915 65 46 2.0 5.0 0.00 0.01 0.01 33 1021.3
20260502091416 64 23 2.0 12.0 0.00 0.01 0.01 35 1021.3
20260502090916 64 37 3.0 5.0 0.00 0.01 0.01 35 1021.3
20260502090415 64 45 2.0 3.0 0.00 0.01 0.01 36 1021.3
20260502071415 62 22 2.0 6.0 0.00 0.01 0.01 39 1021.3
20260502070915 62 69 2.0 5.0 0.00 0.01 0.01 38 1021.2
20260502070415 61 6 3.0 6.0 0.00 0.01 0.01 38 1021.2
20260502065914 61 282 2.0 5.0 0.00 0.01 0.01 41 1021.3
20260502064915 59 334 2.0 5.0 0.00 0.01 0.01 48 1021.3
20260502064424 59 351 2.0 3.0 0.00 0.01 0.01 52 1021.4
20260502063414 58 265 2.0 3.0 0.00 0.01 0.01 56 1021.3
20260502062916 57 273 2.0 3.0 0.00 0.01 0.01 57 1021.3
20260502061917 57 265 2.0 3.0 0.00 0.01 0.01 60 1021.2
20260502061414 56 269 3.0 6.0 0.00 0.01 0.01 61 1021.2
20260502060913 57 259 2.0 3.0 0.00 0.01 0.01 61 1021.2
20260502060415 56 284 2.0 3.0 0.00 0.01 0.01 62 1021.3
20260502055913 56 278 2.0 3.0 0.00 0.01 0.01 60 1021.2
20260502055416 56 270 2.0 3.0 0.00 0.01 0.01 60 1021.2
20260502054414 56 271 3.0 3.0 0.00 0.01 0.01 61 1021.2
20260502053914 56 252 2.0 3.0 0.00 0.01 0.01 61 1021.2
20260502053413 56 253 2.0 3.0 0.00 0.01 0.01 60 1021.2
20260502052918 56 259 2.0 3.0 0.00 0.01 0.01 58 1021.2
20260502052417 56 264 2.0 3.0 0.00 0.01 0.01 59 1021.2
20260502051923 55 299 2.0 3.0 0.00 0.01 0.01 60 1021.2
20260502051414 55 295 2.0 3.0 0.00 0.01 0.01 63 1021.3
20260502050914 55 276 2.0 3.0 0.00 0.01 0.01 62 1021.3
20260502050414 55 271 2.0 3.0 0.00 0.01 0.01 62 1021.3
20260502045914 55 299 2.0 3.0 0.00 0.01 0.01 60 1021.3
20260502045416 56 268 2.0 3.0 0.00 0.01 0.01 56 1021.2
20260502044915 56 291 1.0 3.0 0.00 0.01 0.01 57 1021.2
20260502044415 56 278 2.0 3.0 0.00 0.01 0.01 56 1021.2
20260502043914 56 306 2.0 3.0 0.00 0.01 0.01 54 1021.1
20260502042917 56 263 2.0 3.0 0.00 0.01 0.01 51 1021.0
20260502042418 56 279 2.0 3.0 0.00 0.01 0.01 51 1020.9
20260502041918 56 280 1.0 3.0 0.00 0.01 0.01 51 1020.9
20260502040415 56 308 2.0 3.0 0.00 0.01 0.01 51 1020.8
20260502035915 56 291 2.0 3.0 0.00 0.01 0.01 51 1020.8
20260502035414 56 277 2.0 3.0 0.00 0.01 0.01 50 1020.8
20260502034915 56 275 1.0 3.0 0.00 0.01 0.01 50 1020.7
20260502034417 56 285 1.0 3.0 0.00 0.01 0.01 51 1020.7
20260502033915 56 263 2.0 3.0 0.00 0.01 0.01 49 1020.6
20260502033418 56 277 1.0 3.0 0.00 0.01 0.01 49 1020.7
20260502032919 56 285 1.0 2.0 0.00 0.01 0.01 49 1020.7
20260502032419 56 260 1.0 3.0 0.00 0.01 0.01 49 1020.6
20260502031914 56 352 1.0 3.0 0.00 0.01 0.01 49 1020.6
20260502031415 55 295 1.0 3.0 0.00 0.01 0.01 49 1020.6
20260502030414 56 301 1.0 3.0 0.00 0.01 0.01 49 1020.6
20260502025416 55 293 2.0 3.0 0.00 0.01 0.01 49 1020.6
20260502024915 55 301 1.0 3.0 0.00 0.01 0.01 48 1020.6
20260502024414 56 279 0.0 1.0 0.00 0.01 0.01 48 1020.6
20260502023914 56 283 1.0 3.0 0.00 0.01 0.01 47 1020.6
20260502023415 56 292 2.0 3.0 0.00 0.01 0.01 48 1020.6
20260502022414 55 311 1.0 3.0 0.00 0.01 0.01 49 1020.6
20260502021913 55 333 1.0 3.0 0.00 0.01 0.01 50 1020.6